[[{"header":{"parameterUnit":"m.s-1","parameterCategory":1,"la1":30.2991,"la2":30.254,"lo1":-89.0895,"lo2":-89.0444,"dy":0.0017,"dx":0.0017,"nx":28,"ny":28,"refTime":"2025-08-19T09:00:00:Z","depth":0,"parameterNumber":2,"parameterNumberName":"U-component_of_WINDS"},"data":[0,0,0,0,0,0,0,0,0,0,0,0,0,0,0,0,0,0,0,0,0,0,0,0,0,0,0,0,0,0,0,0,0,0,0,0,0,0,0,0,0,0,0,0,0,0,0,0,0,0,0,0,0,0,0,0,0,0,0.3442,0.3445,0,0.3698,0.3701,0.3703,0.3832,0.3832,0.3832,0.3832,0.4099,0.4106,0.4113,0,0,0,0,0,0,0,0,0,0,0,0,0,0.3067,0.3073,0.3442,0.3445,0.3448,0.3697,0.3701,0.3704,0.3832,0.3832,0.3832,0.3832,0.4097,0.4105,0.4113,0,0,0,0,0,0,0,0,0,0,0,0,0,0.3267,0.3075,0.3441,0.3542,0.3553,0.3696,0.3701,0.3705,0.3832,0.3832,0.3832,0.3832,0.4094,0.4104,0.4114,0.4178,0,0,0.4147,0.4151,0,0,0,0,0,0,0,0,0.3256,0.3281,0.3524,0.3535,0.3548,0.3733,0.3667,0.3864,0.3832,0.3726,0.3832,0.3832,0.3977,0.3997,0.4046,0.4191,0.4202,0.4148,0.4154,0.4159,0.4162,0,0,0,0,0,0,0,0.3242,0.327,0.3543,0.3527,0.3542,0.3575,0.3604,0.3705,0.3848,0.3736,0.3745,0.3774,0.3984,0.4035,0.4053,0.4206,0.4147,0.4157,0.4163,0.4168,0.4416,0.4417,0,0,0,0,0,0,0.3211,0.3258,0.3535,0.3551,0.3399,0.3582,0.3614,0.3674,0.3848,0.3874,0.3773,0.3779,0.4017,0.404,0.4063,0.4149,0.4159,0.4169,0.4175,0.4416,0.4416,0.4417,0,0,0,0,0,0,0.3202,0.3234,0.3525,0.3407,0.3447,0.3588,0.3654,0.3679,0.373,0.3876,0.3903,0.3799,0.4018,0.4048,0.4148,0.4159,0.4173,0.4183,0.4416,0.4416,0.4417,0.432,0,0,0,0,0,0,0.3191,0.323,0.3255,0.3407,0.3452,0.3604,0.3655,0.3684,0.3747,0.3756,0.3907,0.3932,0.402,0.4132,0.4159,0.4174,0.4191,0.4415,0.4416,0.4416,0.4323,0.4317,0.4312,0,0,0,0,0,0.3177,0.3219,0.3256,0.3289,0.3486,0.3605,0.3631,0.373,0.3747,0.3774,0.3868,0.3927,0.4153,0.4141,0.4172,0.4191,0.4415,0.4416,0.4416,0.4326,0.4319,0.4313,0,0,0,0,0,0,0.3068,0.3241,0.3284,0.3376,0.3474,0.3626,0.3663,0.372,0.3817,0.3822,0.3942,0.3975,0.4064,0.4138,0.4121,0.4262,0.429,0.4297,0.421,0.4205,0.42,0.418,0.42,0,0,0,0,0,0.3054,0.3134,0.3282,0.3349,0.3396,0.352,0.3576,0.3644,0.3751,0.3794,0.3896,0.3999,0.4094,0.4154,0.4249,0.4334,0.4369,0.4363,0.4357,0.4352,0.4357,0.4407,0.4406,0.4419,0.4419,0.4419,0,0,0.3027,0.3131,0.3175,0.333,0.3414,0.3496,0.3555,0.3639,0.3701,0.3808,0.3908,0.3986,0.4109,0.4202,0.4248,0.4266,0.4361,0.4353,0.4348,0.4356,0.4408,0.4406,0.4405,0.4419,0.4419,0.4419,0,0,0.3019,0.3106,0.3171,0.3254,0.338,0.3463,0.3478,0.3621,0.3676,0.3779,0.386,0.3936,0.4096,0.418,0.4244,0.4266,0.4325,0.4294,0.4266,0.4314,0.4313,0.4313,0.432,0.4322,0.4298,0.4298,0.4298,0,0.297,0.3095,0.3198,0.3277,0.3343,0.344,0.3507,0.3583,0.3735,0.3778,0.3796,0.3998,0.4088,0.4202,0.4206,0.4255,0.4277,0.4278,0.4304,0.4305,0.4307,0.4315,0.4318,0.4294,0.4294,0.4295,0.4295,0,0.3028,0.3114,0.3151,0.3292,0.3362,0.3435,0.355,0.3608,0.3669,0.3749,0.3852,0.3963,0.4082,0.4114,0.4176,0.4236,0.4244,0.4281,0.4312,0.4299,0.4309,0.4313,0.4287,0.4289,0.429,0.4291,0,0,0.296,0.3156,0.3168,0.3233,0.3379,0.3447,0.3524,0.3639,0.3686,0.3787,0.3855,0.3987,0.4023,0.4095,0.4166,0.4208,0.4218,0.4241,0.4246,0.4232,0.4291,0.4261,0.4264,0.4257,0.4258,0.4259,0.4281,0,0.2972,0.3114,0.3208,0.3312,0.3392,0.3486,0.3553,0.365,0.3727,0.3807,0.3893,0.3985,0.4024,0.4068,0.4114,0.4207,0.4231,0.4207,0.4322,0.4325,0.4288,0.4269,0.4239,0.4254,0.4285,0.4286,0.4287,0,0.3006,0.3102,0.3214,0.335,0.3387,0.3445,0.3557,0.3633,0.3744,0.3798,0.3877,0.3949,0.4035,0.4058,0.4178,0.4159,0.4212,0.4264,0.4268,0.4282,0.4305,0.4283,0.4262,0.4263,0.4294,0.4293,0.4293,0,0.2944,0.3102,0.3189,0.3242,0.3403,0.3441,0.351,0.3622,0.3685,0.3783,0.3825,0.3932,0.3991,0.4072,0.4172,0.4179,0.4282,0.4313,0.4329,0.4326,0.4347,0.4344,0.4333,0.438,0.438,0.438,0.438,0,0.2949,0.3013,0.3163,0.3216,0.3291,0.3399,0.3471,0.3548,0.3647,0.3717,0.3806,0.387,0.3998,0.4078,0.4157,0.4244,0.427,0.4316,0.4336,0.4308,0.4302,0.4345,0.4346,0.4381,0.4381,0.4381,0.438,0,0.2892,0.2995,0.3096,0.3239,0.3277,0.3326,0.3449,0.3505,0.3586,0.3674,0.3701,0.3829,0.3928,0.4035,0.4171,0.4224,0.4307,0.4336,0.4268,0.428,0.4289,0.4286,0.4305,0.4312,0.4353,0.4353,0.4353,0,0.2888,0.294,0.3088,0.3141,0.3207,0.3291,0.3355,0.3463,0.3526,0.3656,0.3696,0.3801,0.3891,0.4045,0.4151,0.4255,0.4287,0.4286,0.4303,0.4273,0.4287,0.4282,0.4288,0.4281,0.428,0.4279,0.4278,0,0.287,0.2918,0.3005,0.311,0.3183,0.3271,0.3363,0.3401,0.3528,0.3594,0.3695,0.3765,0.3902,0.4005,0.4122,0.4195,0.4257,0.4272,0.4281,0.4253,0.4211,0.4233,0.4253,0.4271,0.4272,0.4272,0.4273,0.4273,0.284,0.289,0.3001,0.3096,0.3175,0.3259,0.3318,0.3405,0.3491,0.361,0.3669,0.377,0.3881,0.4043,0.4114,0.4195,0.4214,0.4228,0.4231,0.4232,0.4225,0.4198,0.4217,0.4217,0.4217,0.4218,0.4218,0,0.2826,0.2902,0.2987,0.3112,0.3186,0.3237,0.3341,0.3399,0.3486,0.3583,0.3669,0.3785,0.3886,0.3998,0.4106,0.4149,0.418,0.4173,0.4171,0.4187,0.4202,0.4183,0.4146,0.4146,0.4146,0.4146,0.4146,0.4146,0.2827,0.2913,0.2974,0.3101,0.3178,0.3276,0.3331,0.3408,0.3486,0.3611,0.3694,0.3766,0.387,0.3985,0.4079,0.411,0.4145,0.413,0.4168,0.418,0.4186,0.4191,0.4174,0.4136,0.4136,0.4147,0.4147,0.4147]},{"header":{"parameterUnit":"m.s-1","parameterCategory":1,"la1":30.2991,"la2":30.254,"lo1":-89.0895,"lo2":-89.0444,"dy":0.0017,"dx":0.0017,"nx":28,"ny":28,"refTime":"2025-08-19T09:00:00:Z","depth":0,"parameterNumber":3,"parameterNumberName":"V-component_of_WINDS"},"data":[0,0,0,0,0,0,0,0,0,0,0,0,0,0,0,0,0,0,0,0,0,0,0,0,0,0,0,0,0,0,0,0,0,0,0,0,0,0,0,0,0,0,0,0,0,0,0,0,0,0,0,0,0,0,0,0,0,0,3.0762,3.0762,0,3.0756,3.0756,3.0756,3.0734,3.0734,3.0734,3.0733,3.0725,3.0725,3.0725,0,0,0,0,0,0,0,0,0,0,0,0,0,3.0753,3.0753,3.0762,3.0762,3.0762,3.0756,3.0756,3.0756,3.0735,3.0734,3.0733,3.0733,3.0725,3.0725,3.0725,0,0,0,0,0,0,0,0,0,0,0,0,0,3.0752,3.0753,3.0762,3.0751,3.075,3.0756,3.0756,3.0756,3.0735,3.0734,3.0733,3.0733,3.0725,3.0725,3.0725,3.0741,0,0,3.0726,3.0726,0,0,0,0,0,0,0,0,3.0753,3.0753,3.0752,3.0751,3.075,3.0745,3.0749,3.0751,3.0735,3.074,3.0733,3.0732,3.0732,3.0732,3.0732,3.0741,3.0741,3.0726,3.0726,3.0727,3.0727,0,0,0,0,0,0,0,3.0753,3.0753,3.0759,3.0752,3.0751,3.0745,3.0744,3.0749,3.074,3.074,3.0738,3.0738,3.0731,3.0732,3.0732,3.074,3.0726,3.0727,3.0727,3.0727,3.0759,3.076,0,0,0,0,0,0,3.0755,3.0753,3.076,3.0759,3.075,3.0746,3.0745,3.0747,3.074,3.0738,3.0738,3.0737,3.0732,3.0731,3.0731,3.0747,3.0727,3.0727,3.0727,3.0758,3.0759,3.076,0,0,0,0,0,0,3.0754,3.0755,3.076,3.0756,3.0756,3.0746,3.075,3.0748,3.0748,3.0739,3.0737,3.0741,3.0731,3.0731,3.0738,3.0747,3.0727,3.0727,3.0758,3.0759,3.076,3.0781,0,0,0,0,0,0,3.0754,3.0755,3.0762,3.0756,3.0756,3.0768,3.075,3.0748,3.0749,3.0747,3.0741,3.0739,3.073,3.0738,3.0739,3.0747,3.0728,3.0757,3.0758,3.0759,3.078,3.0783,3.0785,0,0,0,0,0,3.0754,3.0769,3.0763,3.0764,3.0765,3.0769,3.0769,3.0759,3.075,3.0756,3.075,3.0739,3.0746,3.0739,3.074,3.0748,3.0756,3.0758,3.0759,3.0778,3.0782,3.0785,0,0,0,0,0,0,3.0776,3.0768,3.0761,3.0775,3.0773,3.0765,3.0773,3.0764,3.0764,3.0762,3.0749,3.0748,3.0757,3.0753,3.0746,3.0762,3.0749,3.0751,3.0764,3.0767,3.077,3.077,3.0728,0,0,0,0,0,3.0783,3.0788,3.078,3.0792,3.0792,3.0782,3.0784,3.0777,3.0774,3.0773,3.0767,3.0764,3.0765,3.0766,3.0767,3.0779,3.0776,3.0785,3.0788,3.0791,3.0792,3.0795,3.0798,3.0765,3.0765,3.0765,0,0,3.0796,3.0792,3.0796,3.0797,3.0794,3.0798,3.0782,3.0787,3.0789,3.0773,3.0779,3.0775,3.0771,3.078,3.0784,3.0777,3.08,3.0792,3.0794,3.0794,3.0797,3.08,3.0803,3.0766,3.0766,3.0765,0,0,3.0822,3.0821,3.083,3.0827,3.0824,3.0817,3.0819,3.0813,3.0809,3.0816,3.0803,3.0805,3.0808,3.0805,3.0803,3.0826,3.0816,3.0827,3.0841,3.0845,3.0848,3.085,3.0856,3.0859,3.0828,3.0828,3.0828,0,3.0839,3.0845,3.0835,3.0841,3.084,3.0826,3.0834,3.0832,3.0829,3.0828,3.0821,3.0823,3.0819,3.0826,3.0832,3.0832,3.0833,3.0827,3.0848,3.085,3.0852,3.0858,3.086,3.0829,3.0829,3.0829,3.0829,0,3.0864,3.0869,3.0876,3.0873,3.0874,3.0881,3.0871,3.0872,3.0865,3.0858,3.0864,3.0859,3.0857,3.0858,3.0851,3.0864,3.086,3.0851,3.0838,3.0857,3.0862,3.0864,3.0831,3.0831,3.083,3.083,0,0,3.0904,3.0895,3.0897,3.0895,3.0889,3.0892,3.0897,3.0896,3.0896,3.0894,3.0897,3.0899,3.089,3.0889,3.0881,3.0884,3.09,3.0875,3.0874,3.0878,3.0911,3.0916,3.0919,3.0893,3.0894,3.0894,3.091,0,3.0927,3.0936,3.0926,3.0937,3.0939,3.0925,3.0929,3.0925,3.0919,3.092,3.0913,3.0914,3.0903,3.0902,3.0905,3.0897,3.0906,3.0896,3.0894,3.0894,3.0894,3.0922,3.0928,3.0944,3.0912,3.0913,3.0913,0,3.0954,3.0953,3.0964,3.0955,3.0956,3.096,3.0957,3.0958,3.0953,3.0948,3.0946,3.0936,3.0939,3.0927,3.093,3.0924,3.0922,3.0918,3.0919,3.0917,3.0904,3.0919,3.0949,3.0951,3.0916,3.0916,3.0916,0,3.0979,3.098,3.0986,3.0985,3.0976,3.0979,3.0975,3.0969,3.0968,3.0965,3.0964,3.0962,3.096,3.0958,3.0947,3.094,3.095,3.0938,3.0945,3.0945,3.0946,3.0946,3.0975,3.0948,3.0948,3.0948,3.0948,0,3.1004,3.101,3.0997,3.1,3.1006,3.0995,3.1001,3.0996,3.0991,3.0992,3.098,3.0981,3.0967,3.0966,3.0958,3.096,3.096,3.0955,3.0952,3.0955,3.0955,3.0953,3.0951,3.0949,3.0949,3.0949,3.0949,0,3.1032,3.1024,3.1029,3.102,3.1017,3.1022,3.1014,3.1016,3.1009,3.101,3.101,3.0999,3.0997,3.0986,3.0982,3.0977,3.0981,3.0977,3.0983,3.0981,3.0987,3.0986,3.1014,3.1016,3.099,3.099,3.0991,0,3.1048,3.1052,3.1044,3.1044,3.104,3.1041,3.104,3.1029,3.1028,3.1021,3.1023,3.1021,3.1018,3.1015,3.1006,3.1002,3.0997,3.1007,3.0996,3.0998,3.0995,3.0994,3.0994,3.1009,3.1009,3.101,3.101,0,3.1076,3.1071,3.107,3.1067,3.1066,3.1063,3.106,3.106,3.1048,3.1047,3.1045,3.1043,3.1038,3.1035,3.103,3.1024,3.1014,3.1013,3.1014,3.1016,3.1019,3.1016,3.0987,3.1012,3.1012,3.1012,3.1012,3.1012,3.1097,3.1099,3.1093,3.1092,3.1088,3.1085,3.1085,3.1078,3.1077,3.1072,3.1066,3.1064,3.1057,3.1049,3.1044,3.1042,3.1037,3.1039,3.1039,3.1039,3.104,3.1021,3.1041,3.1041,3.1041,3.1041,3.1041,0,3.1122,3.1117,3.1116,3.1111,3.111,3.1102,3.1097,3.1096,3.1095,3.109,3.1087,3.1084,3.108,3.1071,3.1066,3.1066,3.1061,3.1065,3.1064,3.1063,3.1046,3.1045,3.1069,3.1069,3.1069,3.1069,3.1069,3.1069,3.1135,3.1138,3.1132,3.1133,3.1128,3.1127,3.1124,3.112,3.1116,3.1113,3.111,3.1104,3.1097,3.1091,3.1087,3.1084,3.1082,3.1087,3.1082,3.1067,3.1064,3.1061,3.106,3.1087,3.1087,3.1099,3.1099,3.1099]}]]